Lincoln, CA

5:03 AM PST on November 19, 2017 (GMT -0800)
Lincoln Regional-Harder

Weather History for KLHM - July, 2013

Change the Weather History Date:

Tuesday, July 16, 2013

  Actual Average (KAUN) Record (KAUN)
Temperature  
Mean Temperature 70 °F -  
Max Temperature 84 °F 92 °F 110 °F (1972)
Min Temperature 55 °F 62 °F 51 °F (2011)
Cooling Degree Days 4    
Growing Degree Days 20 (Base 50)    
Moisture  
Dew Point 48 °F    
Average Humidity 52    
Maximum Humidity 88    
Minimum Humidity 22    
Precipitation  
Precipitation 0.00 in - - ()
Sea Level Pressure  
Sea Level Pressure 29.88 in    
Wind  
Wind Speed 11 mph (SSE)    
Max Wind Speed 17 mph    
Max Gust Speed 21 mph    
Visibility 10 miles    
Events      
Averages and records for this station are not official NWS values.
T = Trace of Precipitation, MM = Missing Value Source: NWS Daily Summary

Daily Weather History Graph

Daily Weather History Graph

Search for Another Location

Airport or City:

Trip Planner

Search our weather history database for the weather conditions in past years. The results will help you decide how hot, cold, wet, or windy it might be!

Date:

Astronomy

Jul. 16, 2013 Rise Set
Actual Time 5:53 AM PDT 8:29 PM PDT
Civil Twilight 5:22 AM PDT 9:00 PM PDT
Nautical Twilight 4:43 AM PDT 9:38 PM PDT
Astronomical Twilight 4:00 AM PDT 10:21 PM PDT
Moon 2:17 PM PDT (7/16) 12:24 AM PDT (7/16)
Length of Visible Light 15h 37m
Length of Day
14h 35m
First Quarter, 57% of the Moon is Illuminated
Jul 16
First Quarter
Jul 22
Full
Jul 29
Last Quarter
Aug 6
New
Aug 14
First Quarter

Hourly Weather History & Observations

Time (PDT) Temp. Dew Point Humidity Pressure Visibility Wind Dir Wind Speed Gust Speed Precip Events Conditions
12:15 AM 62.6 °F 46.4 °F 55% 29.80 in 10.0 mi SSE 11.5 mph - N/A   Clear
12:35 AM 62.6 °F 46.4 °F 55% 29.80 in 10.0 mi SSE 12.7 mph - N/A   Clear
12:55 AM 60.8 °F 46.4 °F 59% 29.80 in 10.0 mi SSE 11.5 mph - N/A   Clear
1:15 AM 60.8 °F 46.4 °F 59% 29.80 in 10.0 mi SSE 11.5 mph - N/A   Clear
1:35 AM 60.8 °F 48.2 °F 63% 29.80 in 10.0 mi SSE 11.5 mph - N/A   Clear
1:55 AM 59.0 °F 48.2 °F 67% 29.80 in 10.0 mi SSE 12.7 mph - N/A   Clear
2:15 AM 59.0 °F 50.0 °F 72% 29.80 in 10.0 mi SSE 11.5 mph 16.1 mph N/A   Clear
2:35 AM 59.0 °F 50.0 °F 72% 29.80 in 10.0 mi SSE 11.5 mph - N/A   Clear
2:55 AM 57.2 °F 50.0 °F 77% 29.81 in 10.0 mi SSE 12.7 mph 17.3 mph N/A   Clear
3:15 AM 57.2 °F 50.0 °F 77% 29.81 in 10.0 mi SSE 13.8 mph - N/A   Clear
3:35 AM 55.4 °F 50.0 °F 82% 29.81 in 10.0 mi SSE 11.5 mph - N/A   Clear
3:55 AM 55.4 °F 50.0 °F 82% 29.82 in 10.0 mi SE 12.7 mph - N/A   Clear
4:15 AM 55.4 °F 50.0 °F 82% 29.82 in 10.0 mi SSE 11.5 mph - N/A   Clear
4:35 AM 55.4 °F 50.0 °F 82% 29.82 in 10.0 mi SE 10.4 mph - N/A   Clear
4:55 AM 55.4 °F 50.0 °F 82% 29.82 in 10.0 mi SE 11.5 mph 17.3 mph N/A   Clear
5:15 AM 55.4 °F 50.0 °F 82% 29.83 in 10.0 mi SE 10.4 mph - N/A   Clear
5:35 AM 55.4 °F 50.0 °F 82% 29.83 in 10.0 mi SE 10.4 mph - N/A   Clear
5:55 AM 55.4 °F 51.8 °F 88% 29.84 in 10.0 mi SE 9.2 mph - N/A   Clear
6:15 AM 55.4 °F 50.0 °F 82% 29.85 in 10.0 mi SE 10.4 mph - N/A   Clear
6:35 AM 55.4 °F 50.0 °F 82% 29.85 in 10.0 mi SE 10.4 mph - N/A   Clear
6:55 AM 55.4 °F 50.0 °F 82% 29.86 in 10.0 mi SSE 12.7 mph - N/A   Clear
7:15 AM 57.2 °F 50.0 °F 77% 29.87 in 10.0 mi SSE 16.1 mph 20.7 mph N/A   Clear
7:35 AM 59.0 °F 50.0 °F 72% 29.88 in 10.0 mi SSE 17.3 mph - N/A   Clear
7:55 AM 59.0 °F 50.0 °F 72% 29.88 in 10.0 mi SE 15.0 mph 20.7 mph N/A   Clear
8:15 AM 60.8 °F 50.0 °F 68% 29.89 in 10.0 mi SSE 16.1 mph - N/A   Clear
8:35 AM 60.8 °F 50.0 °F 68% 29.90 in 10.0 mi SSE 13.8 mph - N/A   Clear
8:55 AM 62.6 °F 50.0 °F 63% 29.90 in 10.0 mi SSE 13.8 mph - N/A   Clear
9:15 AM 64.4 °F 50.0 °F 59% 29.91 in 10.0 mi SSE 11.5 mph 17.3 mph N/A   Clear
9:35 AM 66.2 °F 50.0 °F 56% 29.91 in 10.0 mi SSE 11.5 mph - N/A   Clear
9:55 AM 68.0 °F 50.0 °F 52% 29.91 in 10.0 mi SSE 11.5 mph - N/A   Clear
10:15 AM 68.0 °F 48.2 °F 49% 29.91 in 10.0 mi South 11.5 mph - N/A   Clear
10:35 AM 69.8 °F 48.2 °F 46% 29.91 in 10.0 mi South 11.5 mph 18.4 mph N/A   Clear
10:55 AM 71.6 °F 48.2 °F 43% 29.91 in 10.0 mi SSE 10.4 mph - N/A   Clear
11:15 AM 71.6 °F 46.4 °F 41% 29.92 in 10.0 mi SSE 9.2 mph 17.3 mph N/A   Clear
11:35 AM 73.4 °F 46.4 °F 38% 29.92 in 10.0 mi SSW 11.5 mph - N/A   Clear
11:55 AM 73.4 °F 48.2 °F 41% 29.92 in 10.0 mi South 10.4 mph 19.6 mph N/A   Clear
12:15 PM 75.2 °F 44.6 °F 34% 29.93 in 10.0 mi South 10.4 mph - N/A   Clear
12:35 PM 77.0 °F 44.6 °F 32% 29.93 in 10.0 mi SSE 10.4 mph 18.4 mph N/A   Clear
12:55 PM 77.0 °F 44.6 °F 32% 29.93 in 10.0 mi South 11.5 mph 17.3 mph N/A   Clear
1:55 PM 78.8 °F 44.6 °F 30% 29.92 in 10.0 mi South 10.4 mph 17.3 mph N/A   Clear
2:15 PM 80.6 °F 44.6 °F 28% 29.92 in 10.0 mi SW 6.9 mph - N/A   Clear
2:35 PM 80.6 °F 44.6 °F 28% 29.92 in 10.0 mi South 8.1 mph - N/A   Clear
2:55 PM 80.6 °F 44.6 °F 28% 29.92 in 10.0 mi South 10.4 mph - N/A   Clear
3:15 PM 82.4 °F 44.6 °F 26% 29.91 in 10.0 mi South 9.2 mph - N/A   Clear
3:35 PM 82.4 °F 44.6 °F 26% 29.91 in 10.0 mi South 9.2 mph - N/A   Clear
3:55 PM 82.4 °F 42.8 °F 25% 29.90 in 10.0 mi South 12.7 mph - N/A   Clear
4:15 PM 84.2 °F 41.0 °F 22% 29.90 in 10.0 mi South 10.4 mph - N/A   Clear
4:35 PM 84.2 °F 41.0 °F 22% 29.90 in 10.0 mi South 11.5 mph - N/A   Clear
4:55 PM 84.2 °F 41.0 °F 22% 29.90 in 10.0 mi SSW 9.2 mph - N/A   Clear
5:15 PM 84.2 °F 42.8 °F 23% 29.89 in 10.0 mi SSW 11.5 mph - N/A   Clear
5:35 PM 84.2 °F 41.0 °F 22% 29.88 in 10.0 mi South 6.9 mph - N/A   Clear
5:55 PM 84.2 °F 42.8 °F 23% 29.88 in 10.0 mi South 12.7 mph - N/A   Clear
6:15 PM 82.4 °F 42.8 °F 25% 29.88 in 10.0 mi South 9.2 mph - N/A   Clear
6:35 PM 82.4 °F 42.8 °F 25% 29.88 in 10.0 mi South 9.2 mph - N/A   Clear
6:55 PM 82.4 °F 42.8 °F 25% 29.88 in 10.0 mi SSE 9.2 mph - N/A   Clear
7:15 PM 80.6 °F 44.6 °F 28% 29.89 in 10.0 mi South 11.5 mph - N/A   Clear
7:35 PM 80.6 °F 44.6 °F 28% 29.89 in 10.0 mi South 11.5 mph - N/A   Clear
7:55 PM 78.8 °F 44.6 °F 30% 29.90 in 10.0 mi South 10.4 mph - N/A   Clear
8:15 PM 75.2 °F 44.6 °F 34% 29.90 in 10.0 mi SSE 10.4 mph - N/A   Clear
8:35 PM 73.4 °F 46.4 °F 38% 29.91 in 10.0 mi SSE 10.4 mph - N/A   Clear
8:55 PM 71.6 °F 46.4 °F 41% 29.91 in 10.0 mi SSE 11.5 mph - N/A   Clear
9:15 PM 69.8 °F 50.0 °F 49% 29.92 in 10.0 mi SSE 9.2 mph - N/A   Clear
9:35 PM 68.0 °F 50.0 °F 52% 29.93 in 10.0 mi SSE 10.4 mph - N/A   Clear
9:55 PM 68.0 °F 51.8 °F 56% 29.94 in 10.0 mi South 10.4 mph - N/A   Clear
10:15 PM 64.4 °F 51.8 °F 64% 29.96 in 10.0 mi SSE 8.1 mph - N/A   Clear
10:35 PM 64.4 °F 51.8 °F 64% 29.96 in 10.0 mi SSE 12.7 mph - N/A   Clear
10:55 PM 62.6 °F 51.8 °F 68% 29.97 in 10.0 mi SSE 9.2 mph - N/A   Clear
11:15 PM 62.6 °F 51.8 °F 68% 29.97 in 10.0 mi SSE 9.2 mph - N/A   Clear
11:35 PM 62.6 °F 51.8 °F 68% 29.97 in 10.0 mi SSE 10.4 mph - N/A   Clear
11:55 PM 60.8 °F 51.8 °F 72% 29.97 in 10.0 mi SE 13.8 mph 17.3 mph N/A   Clear